Weather Roundup
Issued by NWS

Home | Current Version | Previous Version | Graphics & Text | Print | Product List | Glossary Off
Versions: 1 2 3 4 5 6 7 8 9 10 11 12 13 14 15 16 17 18 19 20 21 22 23 24 25 26 27 28 29 30 31 32 33 34 35 36 37 38 39 40 41 42 43 44 45 46 47 48 49 50

000
NZUS93 KARX 081859
HRRWXR

CURRENT HOURLY OBSERVATIONS ACROSS
MUCH OF THE UPPER MISSISSIPPI VALLEY
NATIONAL WEATHER SERVICE LA CROSSE WI
100 PM CST MON FEB 08 2016


...SOUTHEAST MINNESOTA...


CITY           SKY/WX    TMP DP  RH WIND       PRES   REMARKS
ROCHESTER      CLOUDY    13   5  70 N23       29.85S BLWGSNOWWCI  -6
ROCHESTER/MAYO CLOUDY    13   5  70 NW23G33   29.85F WCI  -6
WINONA         CLOUDY    18   9  68 NW21G26   29.88S WCI   1
AUSTIN         LGT SNOW  12   7  79 NW20G28   29.87F WCI  -6
ALBERT LEA       N/A     12   9  85 NW14G28   29.90S WCI  -3
DODGE CENTER   CLOUDY    12   7  79 NW17G26   29.86F HAZE    WCI  -5
PRESTON        FLURRIES  13   6  70 N18G25    29.84S WCI  -4
OWATONNA       LGT SNOW  14   7  73 NW21G29   29.91S WCI  -4
FARIBAULT      CLOUDY    16   7  67 NW20G25   29.93S WCI  -1
$$

...ELSEWHERE IN MINNESOTA...


CITY           SKY/WX    TMP DP  RH WIND       PRES   REMARKS
MINNEAPOLIS    PTSUNNY   16   5  62 NW17      29.93F WCI   0
INTNL FALLS    CLOUDY     6  -2  69 NW16      29.97S HAZE    WCI -12
DULUTH         FLURRIES   9   0  67 NW18G26   29.82F WCI -10
RED WING       CLOUDY    16   1  53 N13G23    29.90F WCI   2
REDWOOD FALLS  FLURRIES  16   7  67 NW21G35   30.03F WCI  -1
MANKATO        PTSUNNY  N/A N/A N/A NW25G32   29.94F
WORTHINGTON    PTSUNNY  N/A N/A N/A NW33G41   30.03F
FAIRMONT       CLOUDY   N/A N/A N/A NW29G36   29.94F
$$

...SOUTHWEST WISCONSIN...


CITY           SKY/WX    TMP DP  RH WIND       PRES   REMARKS
LA CROSSE      CLOUDY    19   9  65 NW18      29.84R WCI   4
PRAIRIE DU CHI CLOUDY    21  10  61 NW18      29.81S WCI   6
BOSCOBEL       CLOUDY    22  11  62 NW14G20   29.79S WCI   9
LONE ROCK      NOT AVBL
PLATTEVILLE    CLOUDY    22  15  76 NW15G24   29.75R WCI   8
FORT MC COY    CLOUDY    20  12  72 NW16G22   29.80S WCI   5
VIROQUA        CLOUDY    18  11  73 NW14      29.75S WCI   5
WIS DELLS      CLOUDY    22  14  71 NW10      29.71S WCI  11
$$

...ELSEWHERE IN WISCONSIN...


CITY           SKY/WX    TMP DP  RH WIND       PRES   REMARKS
MILWAUKEE      CLOUDY    27  21  78 NW12      29.64S WCI  17
MADISON        CLOUDY    23  16  74 NW13      29.69F WCI  11
GREEN BAY      LGT SNOW  31  28  89 N10       29.63S FOG     WCI  22
EAU CLAIRE     NOT AVBL
BLACK RVR FLS  CLOUDY    20   9  62 NW9       29.80F WCI   9
MEDFORD        CLOUDY    19  14  80 NW14      29.71S WCI   5
WAUSAU         CLOUDY    24  17  74 NW14      29.68R WCI  12
WIS RAPIDS     CLOUDY    21  12  68 N15G23    29.73R WCI   8
MARSHFIELD     CLOUDY    19  11  70 NW20      29.71S WCI   3
RICE LAKE      FLURRIES  13   5  69 NW10      29.87S WCI   0
$$

...NORTHEAST IOWA...


CITY           SKY/WX    TMP DP  RH WIND       PRES   REMARKS
WATERLOO       LGT SNOW  15   8  73 NW25      29.88S WCI  -4
DUBUQUE        CLOUDY    20  13  74 NW16G24   29.76S WCI   6
DECORAH        CLOUDY    16   9  73 N22G31    29.80F WCI  -2
MASON CITY     LGT SNOW  13   8  81 NW29      29.92F VSB 1   WCI  -8
CHARLES CITY   CLOUDY    14   9  79 NW25G35   29.88S WCI  -5
OELWEIN        LGT SNOW  14   9  79 NW28G36   29.85R VSB 3/4 WCI  -6
$$

...ELSEWHERE IN IOWA...


CITY           SKY/WX    TMP DP  RH WIND       PRES   REMARKS
DES MOINES     CLOUDY    19   8  62 NW24G39   29.98R BLWGSNOWWCI   2
IOWA CITY      FLURRIES  18  10  71 NW22G33   29.88S WCI   1
FORT DODGE     CLOUDY    18   9  68 NW15G23   29.99F WCI   3
MARSHALLTOWN   LGT SNOW  15   8  73 NW24G36   29.92S WCI  -4
CEDAR RAPIDS   LGT SNOW  17  12  80 NW23G32   29.84F WCI  -1
$$

...NORTHERN ILLINOIS...


CITY           SKY/WX    TMP DP  RH WIND       PRES   REMARKS
CHICAGO-OHARE  CLOUDY    27  22  81 W10       29.66S WCI  17
CHICAGO-MIDWAY CLOUDY    30  21  69 W13       29.67S WCI  20
MOLINE         LGT SNOW  21  15  78 W15       29.80S VSB 1   WCI   8
ROCKFORD       CLOUDY    26  18  71 NW14      29.72S WCI  14
PEORIA         FLURRIES  21  12  68 NW14      29.79S WCI   8
$$

NOTE: "FAIR" INDICATES FEW OR NO CLOUDS BELOW 12,000 FEET WITH NO
SIGNIFICANT WEATHER AND/OR OBSTRUCTIONS TO VISIBILITY. WIND
SPEEDS ARE IN MILES-PER-HOUR.




USA.gov is the U.S. government's official web portal to all federal, state and local government web resources and services.